Location: Bothell
(47.7630°N, 122.2040°W)
Time: 16:10:22
(UTC-07:00)

Amateur Radio Satellites - All Passes

Search period start: 01 May 2016 15:40
Search period end: 02 May 2016 15:40
Location: Bothell, 47.7630°N, 122.2040°W

Satellite Date Start Highest point End Downlink Frequencies (MHz)
Time Altitude Azimuth
SO-50 01 May 15:47:58 15:52:38 48° 45° (NE) 15:57:08 436.795
O/OREOS (USA 219) 01 May 15:48:18 15:52:52 71° 112° (ESE) 15:57:28 437.305
MOZHAYETS 4 01 May 15:58:46 16:01:11 14° 88° (E) 16:03:36
AO-85 01 May 16:02:47 16:07:04 23° 329° (NNW) 16:11:13 145.980
KKS-1 01 May 16:05:12 16:08:48 23° 93° (E) 16:12:22 437.445
ITUPSAT 1 01 May 16:07:53 16:12:33 55° 290° (WNW) 16:17:12 437.325
ITAMSAT 1 01 May 16:08:53 16:13:06 25° 267° (W) 16:17:19 435.822/435.867
SWISSCUBE 01 May 16:18:16 16:22:43 40° 292° (WNW) 16:27:09 437.505
Gurwin Techsat 1B 01 May 16:20:32 16:20:49 10° 276° (W) 16:21:05 435.225
STARS 01 May 16:25:54 16:29:12 20° 92° (E) 16:32:28 437.465
CUSAT 1 01 May 16:30:09 16:33:36 51° 288° (WNW) 16:38:10 437.405
HORYU 2 01 May 16:33:15 16:37:38 57° 71° (ENE) 16:42:02 437.375
Cubesat XI-IV 01 May 16:34:24 16:36:02 11° 51° (NE) 16:37:40 437.490
NOAA 15 01 May 16:35:36 16:38:51 17° 55° (NE) 16:42:06 137.62
PCSat 01 May 16:40:26 16:45:47 65° 119° (ESE) 16:51:11 145.827
BEESAT 01 May 16:52:10 16:55:55 24° 298° (WNW) 16:59:39 436.000
Cosmos 2491 01 May 16:57:28 17:04:51 28° 61° (ENE) 17:12:08 435.465 / 435.565
DANDE 01 May 17:00:53 17:03:46 54° 286° (WNW) 17:07:24 436.750
M-CUBED/EXP-1 PRIME 01 May 17:04:48 17:06:27 12° 49° (NE) 17:08:04 437.505
AO-7 01 May 17:04:53 17:12:18 36° 264° (W) 17:19:48 29.400- 29.500
LilacSat-2 01 May 17:17:54 17:20:00 14° 62° (ENE) 17:22:06 437.200
YUBILEINY 01 May 17:21:31 17:23:30 11° 68° (ENE) 17:25:30 435.215
AUBIESAT-1 01 May 17:23:49 17:26:12 14° 52° (NE) 17:28:34 437.475
CUTE-I 01 May 17:26:50 17:31:19 28° 62° (ENE) 17:35:48 437.470
NOAA 18 01 May 17:27:33 17:32:38 39° 65° (ENE) 17:37:42 137.9125
SO-50 01 May 17:28:53 17:32:54 28° 245° (WSW) 17:36:47 436.795
O/OREOS (USA 219) 01 May 17:29:32 17:32:47 19° 313° (NW) 17:36:03 437.305
MOZHAYETS 4 01 May 17:34:19 17:38:52 72° 286° (WNW) 17:43:25
GOMX 1 01 May 17:34:38 17:37:50 17° 56° (ENE) 17:41:08 467.674
CUBESAT XI-V 01 May 17:39:25 17:42:41 18° 90° (E) 17:45:56 437.345
DOVE 4 01 May 17:40:14 17:41:03 10° 51° (NE) 17:41:52 437.250
KKS-1 01 May 17:41:18 17:45:33 42° 291° (WNW) 17:49:44 437.445
AO-85 01 May 17:47:26 17:49:28 12° 353° (N) 17:51:28 145.980
BRITE-PL 01 May 17:52:16 17:56:46 38° 66° (ENE) 18:01:37 437.365/2234.400
STARS 01 May 18:01:34 18:05:49 47° 290° (WNW) 18:10:02 437.465
Cubesat XI-IV 01 May 18:09:49 18:15:05 61° 70° (ENE) 18:20:20 437.490
HORYU 2 01 May 18:11:34 18:14:34 17° 269° (W) 18:17:33 437.375
NOAA 15 01 May 18:12:38 18:17:55 88° 253° (WSW) 18:23:15 137.62
PCSat 01 May 18:24:57 18:29:37 28° 320° (NW) 18:34:19 145.827
CINEMA 3 01 May 18:32:59 18:33:58 11° 53° (NE) 18:34:56 145.822/145.860
M-CUBED/EXP-1 PRIME 01 May 18:35:30 18:40:11 65° 67° (ENE) 18:44:48 437.505
BEESAT 3 01 May 18:43:55 18:46:51 20° 114° (ESE) 18:49:47 437.485
BEESAT 2 01 May 18:49:37 18:51:47 14° 111° (ESE) 18:53:56 435.950
LilacSat-2 01 May 18:50:01 18:53:52 60° 260° (W) 18:57:43 437.200
CANX-2 01 May 18:51:19 18:53:04 12° 58° (ENE) 18:54:49 2200.000
Cosmos 2491 01 May 18:53:51 19:02:42 78° 265° (W) 19:11:27 435.465 / 435.565
AUBIESAT-1 01 May 18:55:22 19:00:02 83° 68° (ENE) 19:04:37 437.475
HO-68 01 May 18:58:32 19:04:40 32° 57° (ENE) 19:10:49 435.675
CUTE-I 01 May 19:06:02 19:11:09 48° 261° (W) 19:16:18 437.470
NOAA 18 01 May 19:08:17 19:13:19 36° 263° (W) 19:18:22 137.9125
YUBILEINY 01 May 19:09:46 19:18:11 55° 90° (E) 19:26:35 435.215
GOMX 1 01 May 19:10:05 19:15:08 87° 259° (W) 19:20:32 467.674
DOVE 4 01 May 19:12:35 19:17:35 56° 71° (ENE) 19:22:47 437.250
MOZHAYETS 4 01 May 19:14:13 19:15:14 11° 305° (NW) 19:16:13
CUBESAT XI-V 01 May 19:15:50 19:20:26 58° 288° (WNW) 19:25:03 437.345
CUTE 1.7 + AOD 2 01 May 19:22:38 19:25:51 21° 64° (ENE) 19:29:03 437.475
CUBEBUG 2 01 May 19:28:00 19:29:31 11° 56° (NE) 19:31:01 437.445
AO-85 01 May 19:29:17 19:32:10 15° 18° (NNE) 19:34:56 145.980
BRITE-PL 01 May 19:31:00 19:35:19 31° 267° (W) 19:39:58 437.365/2234.400
Cosmos 2504 01 May 19:39:29 19:44:22 20° 79° (E) 19:49:13 435.465 / 435.565
Cubesat XI-IV 01 May 19:51:35 19:55:34 21° 269° (W) 19:59:35 437.490
SEEDS 01 May 19:51:37 19:55:16 30° 67° (ENE) 19:58:56 437.485
NOAA 15 01 May 19:55:59 19:58:28 13° 273° (W) 20:00:58 137.62
COMPASS 1 01 May 19:57:32 20:00:57 26° 66° (ENE) 20:04:24 437.405
ZACube-1 01 May 19:57:37 19:58:16 10° 56° (NE) 19:58:53 437.345
STRAND 1 01 May 20:03:07 20:07:58 42° 98° (E) 20:12:48 437.568
CINEMA 3 01 May 20:05:10 20:10:07 61° 72° (ENE) 20:15:04 145.822/145.860
M-CUBED/EXP-1 PRIME 01 May 20:11:50 20:15:04 18° 264° (W) 20:18:17 437.505
PCSat 01 May 20:13:15 20:14:57 11° 345° (NNW) 20:16:38 145.827
BEESAT 3 01 May 20:20:25 20:24:16 49° 313° (NW) 20:28:08 437.485
CANX-2 01 May 20:24:05 20:28:19 84° 256° (WSW) 20:32:34 2200.000
BEESAT 2 01 May 20:25:09 20:29:08 70° 309° (NW) 20:33:08 435.950
AAUSAT CUBESAT 2 01 May 20:29:00 20:32:54 43° 70° (ENE) 20:36:49 437.432
AUBIESAT-1 01 May 20:32:40 20:35:00 14° 266° (W) 20:37:19 437.475
Oscar 11 01 May 20:38:49 20:42:24 26° 65° (ENE) 20:45:58 145.826/435.025
HO-68 01 May 20:44:53 20:51:59 64° 257° (WSW) 20:59:07 435.675
FUNcube-1 01 May 20:48:26 20:52:16 28° 66° (ENE) 20:56:02 145.935
DOVE 4 01 May 20:51:37 20:55:38 23° 270° (W) 20:59:46 437.250
GOMX 1 01 May 20:51:44 20:54:04 13° 276° (W) 20:56:29 467.674
Cosmos 2491 01 May 20:52:40 20:58:00 18° 287° (WNW) 21:03:20 435.465 / 435.565
UWE-3 01 May 20:55:56 21:00:24 48° 71° (ENE) 21:04:48 435.000/436.395/437.385
CUTE 1.7 + AOD 2 01 May 20:57:26 21:01:27 42° 262° (W) 21:05:29 437.475
CUBEBUG 2 01 May 21:00:37 21:05:21 74° 75° (ENE) 21:10:02 437.445
YUBILEINY 01 May 21:07:17 21:15:19 39° 292° (WNW) 21:23:22 435.215
AO-85 01 May 21:09:20 21:14:04 41° 42° (NE) 21:18:23 145.980
HUMSAT D 01 May 21:09:31 21:11:41 14° 60° (ENE) 21:13:50 437.325/437.525
PRISM 01 May 21:11:49 21:15:48 42° 99° (E) 21:19:46 437.425
SEEDS 01 May 21:27:22 21:30:58 28° 265° (W) 21:34:37 437.485
RS-15 01 May 21:27:45 21:37:34 36° 106° (ESE) 21:47:50 29.354- 29.394
ZACube-1 01 May 21:29:14 21:33:46 71° 73° (ENE) 21:38:13 437.345
Cosmos 2504 01 May 21:29:32 21:36:49 82° 280° (W) 21:44:02 435.465 / 435.565
COMPASS 1 01 May 21:32:41 21:36:25 33° 264° (W) 21:40:11 437.405
STRAND 1 01 May 21:42:37 21:47:01 30° 297° (WNW) 21:51:24 437.568
CINEMA 3 01 May 21:43:59 21:47:37 20° 270° (W) 21:51:17 145.822/145.860
AIST 2 01 May 21:47:10 21:51:15 67° 124° (SE) 21:55:23 435.215
DELFI C3 01 May 21:51:56 21:55:51 70° 74° (ENE) 21:59:48 145.870
PCSat 01 May 21:59:47 22:01:02 11° 12° (NNE) 22:02:18 145.827
BEESAT 3 01 May 22:01:12 22:02:54 12° 334° (NNW) 22:04:36 437.485
BEESAT 2 01 May 22:05:20 22:07:43 15° 330° (NNW) 22:10:05 435.950
AAUSAT CUBESAT 2 01 May 22:05:37 22:08:36 19° 268° (W) 22:11:36 437.432
Oscar 11 01 May 22:14:25 22:18:23 36° 263° (W) 22:22:23 145.826/435.025
AISAT 01 May 22:18:59 22:21:14 14° 57° (ENE) 22:23:30 437.250
FUNcube-1 01 May 22:24:15 22:28:24 36° 263° (W) 22:32:31 145.935
ESTCUBE 1 01 May 22:31:39 22:35:04 22° 62° (ENE) 22:38:30 437.505/2401.250
UWE-3 01 May 22:33:34 22:37:05 21° 268° (W) 22:40:36 435.000/436.395/437.385
HO-68 01 May 22:38:40 22:41:08 12° 277° (W) 22:43:37 435.675
CUBEBUG 2 01 May 22:39:50 22:42:28 15° 272° (W) 22:45:06 437.445
HUMSAT D 01 May 22:42:33 22:46:47 73° 257° (WSW) 22:50:59 437.325/437.525
PRISM 01 May 22:47:41 22:50:53 22° 297° (WNW) 22:54:05 437.425
AO-85 01 May 22:50:07 22:54:28 34° 244° (WSW) 22:58:28 145.980
UNISAT 6 01 May 22:54:32 22:58:14 26° 94° (E) 23:01:51 437.425
CUBEBUG 1 01 May 22:57:11 23:00:51 27° 65° (ENE) 23:04:34 437.445
GONETS M04 01 May 23:04:23 23:07:30 12° 69° (ENE) 23:10:36
ZACube-1 01 May 23:08:06 23:10:31 14° 271° (W) 23:12:54 437.345
TIGRISAT 01 May 23:12:14 23:16:18 37° 97° (E) 23:20:16 435.000
VELOX 1 01 May 23:20:56 23:25:10 46° 70° (ENE) 23:29:27 145.980
DX 1 01 May 23:21:41 23:25:48 43° 69° (ENE) 23:29:58 434.975-435.025
AIST 2 01 May 23:26:54 23:30:09 22° 324° (NW) 23:33:25 435.215
Cosmos 2504 01 May 23:26:54 23:31:29 18° 303° (WNW) 23:36:04 435.465 / 435.565
50 SAT 01 May 23:29:05 23:32:42 59° 73° (ENE) 23:36:18 437.505
DELFI C3 01 May 23:29:57 23:31:12 11° 272° (W) 23:32:29 145.870
UKube-1 01 May 23:30:10 23:34:15 43° 69° (ENE) 23:38:22 .
ANTELSAT 01 May 23:36:25 23:40:47 69° 102° (ESE) 23:45:03 437.575/2403.000
RS-15 01 May 23:37:33 23:48:59 78° 311° (NW) 00:01:09 29.354- 29.394
PCSat 01 May 23:42:01 23:46:29 25° 38° (NE) 23:50:57 145.827
QB50P2 01 May 23:45:04 23:48:12 20° 92° (E) 23:51:18 145.880/145.840
DUCHIFAT 1 01 May 23:46:24 23:49:16 18° 91° (E) 23:52:07 145.980
POLYITAN 1 01 May 23:47:12 23:50:21 20° 92° (E) 23:53:28 437.675
POPSAT HIP 1 01 May 23:50:02 23:53:16 21° 92° (E) 23:56:28 437.405
AISAT 01 May 23:52:38 23:57:06 84° 257° (WSW) 00:01:36 437.250
QB50P1 01 May 23:53:16 23:56:39 23° 93° (E) 00:00:00 145.935-145.965
SPROUT 02 May 00:01:59 00:06:06 46° 70° (ENE) 00:10:16 437.525
ESTCUBE 1 02 May 00:07:16 00:11:36 48° 261° (W) 00:15:58 437.505/2401.250
O/OREOS (USA 219) 02 May 00:16:01 00:20:07 32° 54° (NE) 00:24:10 437.305
NANOSAT C BR1 02 May 00:28:11 00:32:19 48° 99° (E) 00:36:24 145.865
UNISAT 6 02 May 00:31:04 00:35:02 34° 293° (WNW) 00:38:55 437.425
BUGSAT 1 02 May 00:32:12 00:35:46 26° 94° (E) 00:39:17 437.445
CUBEBUG 1 02 May 00:32:58 00:37:01 36° 263° (W) 00:41:07 437.445
AIST 1 02 May 00:34:23 00:38:16 34° 91° (E) 00:42:13
TISAT 1 02 May 00:40:02 00:43:57 37° 68° (ENE) 00:47:54 437.305
BEESAT 02 May 00:48:52 00:51:01 13° 55° (NE) 00:53:10 436.000
TIGRISAT 02 May 00:49:16 00:52:50 25° 296° (WNW) 00:56:20 435.000
GONETS M04 02 May 00:53:42 01:02:18 59° 91° (E) 01:10:53
VELOX 1 02 May 00:58:30 01:01:52 21° 268° (W) 01:05:17 145.980
DX 1 02 May 00:58:47 01:02:11 22° 267° (W) 01:05:37 434.975-435.025
50 SAT 02 May 01:05:35 01:06:53 11° 271° (W) 01:08:10 437.505
UKube-1 02 May 01:07:11 01:10:30 21° 267° (W) 01:13:52 .
ANTELSAT 02 May 01:14:27 01:16:58 15° 301° (WNW) 01:19:27 437.575/2403.000
CUSAT 1 02 May 01:15:57 01:21:50 29° 66° (ENE) 01:28:27 437.405
JAS-2 02 May 01:19:49 01:26:44 34° 92° (E) 01:33:41 435.910
QB50P2 02 May 01:20:10 01:24:15 45° 290° (WNW) 01:28:17 145.880/145.840
BEESAT 3 02 May 01:21:06 01:22:07 11° 23° (NNE) 01:23:08 437.485
DUCHIFAT 1 02 May 01:21:10 01:25:16 50° 289° (WNW) 01:29:20 145.980
POLYITAN 1 02 May 01:22:20 01:26:24 44° 290° (WNW) 01:30:24 437.675
Oscar 19 02 May 01:22:31 01:25:29 15° 88° (E) 01:28:25 437.125/150
PCSat 02 May 01:25:02 01:30:29 77° 239° (WSW) 01:35:54 145.827
POPSAT HIP 1 02 May 01:25:13 01:29:15 42° 291° (WNW) 01:33:15 437.405
QB50P1 02 May 01:28:36 01:32:35 39° 291° (WNW) 01:36:30 145.935-145.965
Cosmos 2499 02 May 01:38:49 01:45:42 58° 92° (E) 01:52:39 435.465 / 435.565
SPROUT 02 May 01:39:06 01:42:18 20° 268° (W) 01:45:31 437.525
ITUPSAT 1 02 May 01:40:37 01:44:53 34° 66° (ENE) 01:49:10 437.325
DANDE 02 May 01:49:45 01:54:47 25° 67° (ENE) 02:00:43 436.750
SWISSCUBE 02 May 01:50:15 01:54:46 45° 69° (ENE) 01:59:19 437.505
RS-15 02 May 01:52:53 02:03:39 39° 342° (NNW) 02:14:53 29.354- 29.394
O/OREOS (USA 219) 02 May 01:55:27 01:59:31 33° 254° (WSW) 02:03:32 437.305
NANOSAT C BR1 02 May 02:04:41 02:07:44 20° 298° (WNW) 02:10:47 145.865
BUGSAT 1 02 May 02:07:23 02:11:12 33° 293° (WNW) 02:14:57 437.445
AIST 1 02 May 02:12:21 02:15:57 25° 290° (WNW) 02:19:36
TISAT 1 02 May 02:16:16 02:19:43 24° 266° (W) 02:23:13 437.305
BEESAT 02 May 02:23:18 02:28:03 83° 75° (ENE) 02:32:51 436.000
ITAMSAT 1 02 May 02:39:25 02:41:48 13° 87° (E) 02:44:11 435.822/435.867
Gurwin Techsat 1B 02 May 02:47:28 02:52:21 36° 96° (E) 02:57:13 435.225
GONETS M04 02 May 02:51:31 02:59:34 37° 293° (WNW) 03:07:39
BEESAT 3 02 May 02:57:09 03:00:54 39° 45° (NE) 03:04:38 437.485
CUSAT 1 02 May 02:57:30 03:04:26 73° 262° (W) 03:12:24 437.405
Oscar 19 02 May 03:00:13 03:05:27 82° 287° (WNW) 03:10:39 437.125/150
BEESAT 2 02 May 03:02:45 03:06:20 30° 41° (NE) 03:09:52 435.950
MOZHAYETS 4 02 May 03:03:37 03:07:01 21° 62° (ENE) 03:10:25
JAS-2 02 May 03:04:30 03:12:05 63° 291° (WNW) 03:19:48 435.910
KKS-1 02 May 03:06:14 03:10:14 33° 66° (ENE) 03:14:16 437.445
PCSat 02 May 03:10:43 03:12:57 13° 258° (WSW) 03:15:12 145.827
AO-7 02 May 03:11:02 03:14:57 14° 84° (E) 03:18:51 29.400- 29.500
ITUPSAT 1 02 May 03:18:27 03:22:43 32° 264° (W) 03:27:00 437.325
STARS 02 May 03:25:33 03:29:19 28° 65° (ENE) 03:33:08 437.465
SWISSCUBE 02 May 03:28:57 03:32:47 24° 267° (W) 03:36:37 437.505
DANDE 02 May 03:31:46 03:37:59 75° 261° (W) 03:45:47 436.750
Cosmos 2499 02 May 03:33:14 03:39:17 30° 295° (WNW) 03:45:26 435.465 / 435.565
BEESAT 02 May 04:04:16 04:06:28 13° 272° (W) 04:08:41 436.000
RS-15 02 May 04:09:12 04:20:11 38° 16° (NNE) 04:31:26 29.354- 29.394
ITAMSAT 1 02 May 04:16:48 04:22:01 89° 107° (ESE) 04:27:13 435.822/435.867
Gurwin Techsat 1B 02 May 04:27:28 04:32:19 37° 295° (WNW) 04:37:08 435.225
AIST 2 02 May 04:27:30 04:30:48 22° 36° (NE) 04:34:06 435.215
BEESAT 3 02 May 04:35:09 04:38:28 26° 243° (WSW) 04:41:46 437.485
MOZHAYETS 4 02 May 04:39:24 04:43:52 51° 261° (W) 04:48:20
BEESAT 2 02 May 04:40:32 04:44:14 37° 241° (WSW) 04:47:55 435.950
Oscar 19 02 May 04:41:14 04:43:59 15° 306° (NW) 04:46:43 437.125/150
CUSAT 1 02 May 04:41:34 04:45:43 16° 279° (W) 04:50:09 437.405
KKS-1 02 May 04:42:51 04:46:49 30° 264° (W) 04:50:47 437.445
CUBESAT XI-V 02 May 04:45:53 04:49:41 26° 64° (ENE) 04:53:31 437.345
JAS-2 02 May 04:51:05 04:55:45 18° 311° (NW) 05:00:32 435.910
AO-7 02 May 05:01:04 05:09:23 65° 105° (ESE) 05:17:39 29.400- 29.500
STARS 02 May 05:01:31 05:05:35 35° 263° (W) 05:09:41 437.465
YUBILEINY 02 May 05:15:32 05:23:14 33° 64° (ENE) 05:30:53 435.215
DANDE 02 May 05:16:37 05:20:15 16° 276° (W) 05:24:15 436.750
STRAND 1 02 May 05:46:16 05:48:57 15° 55° (NE) 05:51:39 437.568
NOAA 18 02 May 05:48:29 05:49:58 11° 85° (E) 05:51:26 137.9125
BRITE-PL 02 May 05:55:14 05:57:20 12° 83° (E) 05:59:25 437.365/2234.400
HORYU 2 02 May 05:57:07 06:01:34 70° 103° (ESE) 06:05:57 437.375
ITAMSAT 1 02 May 05:57:43 06:00:48 16° 305° (NW) 06:03:53 435.822/435.867
Cosmos 2491 02 May 06:04:26 06:11:23 27° 79° (E) 06:18:21 435.465 / 435.565
AIST 2 02 May 06:05:33 06:09:40 64° 236° (SW) 06:13:46 435.215
LilacSat-2 02 May 06:21:59 06:23:24 12° 88° (E) 06:24:49 437.200
CUBESAT XI-V 02 May 06:22:34 06:26:54 40° 263° (W) 06:31:17 437.345
RS-15 02 May 06:22:58 06:35:13 71° 46° (NE) 06:47:34 29.354- 29.394
Cubesat XI-IV 02 May 06:24:31 06:28:10 18° 90° (E) 06:31:48 437.490
NOAA 15 02 May 06:24:45 06:29:14 27° 94° (E) 06:33:41 137.62
AO-7 02 May 06:54:23 07:01:44 37° 306° (NW) 07:09:06 29.400- 29.500
GOMX 1 02 May 07:09:02 07:13:36 26° 91° (E) 07:18:00 467.674
DOVE 4 02 May 07:10:12 07:12:36 13° 85° (E) 07:14:57 437.250
YUBILEINY 02 May 07:12:06 07:20:42 66° 267° (W) 07:29:15 435.215
Cosmos 2504 02 May 07:16:45 07:23:53 45° 72° (ENE) 07:31:28 435.465 / 435.565
CUTE-I 02 May 07:19:16 07:24:29 52° 100° (E) 07:29:40 437.470
STRAND 1 02 May 07:22:16 07:27:22 84° 75° (ENE) 07:32:30 437.568
NOAA 18 02 May 07:26:06 07:31:35 74° 104° (ESE) 07:37:01 137.9125
BRITE-PL 02 May 07:31:02 07:36:45 73° 102° (ESE) 07:42:24 437.365/2234.400
HORYU 2 02 May 07:34:58 07:37:36 16° 301° (WNW) 07:40:15 437.375
SO-50 02 May 07:45:06 07:49:45 44° 120° (ESE) 07:54:25 436.795
M-CUBED/EXP-1 PRIME 02 May 07:47:24 07:50:44 24° 99° (E) 07:53:50 437.505
LilacSat-2 02 May 07:54:21 07:58:08 63° 287° (WNW) 08:01:53 437.200
Cosmos 2491 02 May 07:58:29 08:07:19 77° 281° (W) 08:16:14 435.465 / 435.565
CINEMA 3 02 May 07:59:19 08:00:42 11° 85° (E) 08:02:06 145.822/145.860
Cubesat XI-IV 02 May 08:03:27 08:08:46 70° 288° (WNW) 08:14:03 437.490
NOAA 15 02 May 08:04:08 08:09:14 48° 292° (WNW) 08:14:20 137.62
PRISM 02 May 08:04:23 08:08:17 47° 70° (ENE) 08:12:15 437.425
AUBIESAT-1 02 May 08:06:29 08:10:04 32° 101° (ESE) 08:13:24 437.475
CANX-2 02 May 08:07:14 08:09:20 13° 88° (E) 08:11:27 2200.000
HO-68 02 May 08:09:35 08:14:55 22° 90° (E) 08:20:12 435.675
ISS 02 May 08:17:33 08:20:29 31° 144° (SE) 08:23:25 145.825
RS-15 02 May 08:36:00 08:47:10 44° 251° (WSW) 08:58:22 29.354- 29.394
CUTE 1.7 + AOD 2 02 May 08:39:04 08:42:34 25° 94° (E) 08:46:04 437.475
DOVE 4 02 May 08:45:51 08:51:06 90° 315° (NW) 08:56:03 437.250
GOMX 1 02 May 08:46:37 08:51:57 52° 290° (WNW) 08:57:05 467.674
AO-7 02 May 08:49:37 08:52:07 12° 330° (NNW) 08:54:38 29.400- 29.500
CUBEBUG 2 02 May 08:50:35 08:52:03 12° 86° (E) 08:53:32 437.445
CUTE-I 02 May 08:59:53 09:04:13 26° 299° (WNW) 09:08:34 437.470
ANTELSAT 02 May 09:04:19 09:06:32 13° 58° (ENE) 09:08:44 437.575/2403.000
STRAND 1 02 May 09:04:33 09:07:13 14° 272° (W) 09:09:53 437.568
SEEDS 02 May 09:07:13 09:11:06 35° 97° (E) 09:14:58 437.485
NOAA 18 02 May 09:07:46 09:11:41 21° 303° (WNW) 09:15:36 137.9125
Cosmos 2504 02 May 09:10:18 09:17:14 43° 272° (W) 09:24:38 435.465 / 435.565
BRITE-PL 02 May 09:10:24 09:14:40 22° 300° (WNW) 09:18:54 437.365/2234.400
YUBILEINY 02 May 09:11:41 09:15:40 14° 289° (WNW) 09:19:40 435.215
COMPASS 1 02 May 09:11:51 09:15:30 29° 95° (E) 09:19:10 437.405
M-CUBED/EXP-1 PRIME 02 May 09:21:43 09:25:23 32° 299° (WNW) 09:28:47 437.505
SO-50 02 May 09:25:48 09:30:22 36° 319° (NW) 09:34:54 436.795
CINEMA 3 02 May 09:33:53 09:38:38 89° 284° (WNW) 09:43:07 145.822/145.860
PRISM 02 May 09:41:06 09:43:53 18° 268° (W) 09:46:41 437.425
AUBIESAT-1 02 May 09:41:09 09:44:28 25° 301° (WNW) 09:47:35 437.475
CANX-2 02 May 09:41:27 09:45:39 66° 286° (WNW) 09:49:51 2200.000
AAUSAT CUBESAT 2 02 May 09:43:02 09:47:05 50° 100° (E) 09:51:08 437.432
Cubesat XI-IV 02 May 09:45:38 09:47:55 13° 308° (NW) 09:50:12 437.490
ISS 02 May 09:53:33 09:56:48 62° 342° (NNW) 10:00:04 145.825
UNISAT 6 02 May 09:56:08 10:00:24 37° 68° (ENE) 10:04:37 437.425
HO-68 02 May 09:56:15 10:03:26 82° 289° (WNW) 10:10:36 435.675
Oscar 11 02 May 09:57:57 10:01:50 31° 96° (E) 10:05:40 145.826/435.025
Cosmos 2491 02 May 09:59:44 10:05:53 20° 306° (NW) 10:12:05 435.465 / 435.565
FUNcube-1 02 May 10:08:49 10:12:39 33° 96° (E) 10:16:23 145.935
TIGRISAT 02 May 10:13:35 10:18:05 51° 71° (ENE) 10:22:32 435.000
CUTE 1.7 + AOD 2 02 May 10:14:40 10:18:30 35° 292° (WNW) 10:22:19 437.475
UWE-3 02 May 10:18:36 10:22:54 64° 102° (ESE) 10:27:03 435.000/436.395/437.385
HUMSAT D 02 May 10:24:07 10:26:14 14° 89° (E) 10:28:20 437.325/437.525
CUBEBUG 2 02 May 10:24:56 10:29:20 79° 286° (WNW) 10:33:33 437.445
DOVE 4 02 May 10:24:59 10:28:00 16° 304° (NW) 10:30:56 437.250
GOMX 1 02 May 10:28:38 10:28:47 10° 310° (NW) 10:28:55 467.674
ANTELSAT 02 May 10:37:56 10:42:36 90° 254° (WSW) 10:47:12 437.575/2403.000
AIST 1 02 May 10:38:39 10:41:00 14° 64° (ENE) 10:43:21
QB50P2 02 May 10:40:51 10:44:18 24° 64° (ENE) 10:47:45 145.880/145.840
DUCHIFAT 1 02 May 10:41:28 10:44:43 22° 63° (ENE) 10:47:58 145.980
POLYITAN 1 02 May 10:42:57 10:46:27 24° 64° (ENE) 10:49:56 437.675
SEEDS 02 May 10:43:15 10:46:40 25° 295° (WNW) 10:50:04 437.485
POPSAT HIP 1 02 May 10:45:40 10:49:10 25° 65° (ENE) 10:52:42 437.405
COMPASS 1 02 May 10:47:27 10:51:03 29° 293° (WNW) 10:54:39 437.405
QB50P1 02 May 10:48:49 10:52:26 27° 66° (ENE) 10:56:04 145.935-145.965
ZACube-1 02 May 10:50:33 10:54:49 86° 284° (WNW) 10:58:59 437.345
GONETS M04 02 May 10:59:46 11:07:41 35° 65° (ENE) 11:15:28
DELFI C3 02 May 11:01:00 11:05:00 74° 103° (ESE) 11:08:58 145.870
SO-50 02 May 11:09:45 11:12:14 14° 342° (NNW) 11:14:42 436.795
CINEMA 3 02 May 11:12:46 11:15:00 13° 304° (NW) 11:17:11 145.822/145.860
AAUSAT CUBESAT 2 02 May 11:19:24 11:22:14 18° 297° (WNW) 11:25:05 437.432
NANOSAT C BR1 02 May 11:23:15 11:27:26 56° 72° (ENE) 11:31:38 145.865
Cosmos 2499 02 May 11:24:38 11:30:55 27° 64° (ENE) 11:37:32 435.465 / 435.565
BUGSAT 1 02 May 11:24:58 11:28:39 29° 66° (ENE) 11:32:22 437.445
ISS 02 May 11:30:29 11:33:36 40° 2° (N) 11:36:43 145.825
UNISAT 6 02 May 11:33:12 11:37:11 28° 266° (W) 11:41:07 437.425
Oscar 11 02 May 11:34:11 11:37:54 29° 294° (WNW) 11:41:37 145.826/435.025
JAS-2 02 May 11:37:20 11:41:51 21° 52° (NE) 11:46:44 435.910
AISAT 02 May 11:40:47 11:43:22 15° 89° (E) 11:45:56 437.250
PHONESAT 2.4 02 May 11:44:01 11:46:10 17° 167° (SSE) 11:48:20 2401.200-2431.200
HO-68 02 May 11:45:10 11:50:11 21° 310° (NW) 11:55:11 435.675
FUNcube-1 02 May 11:45:15 11:48:48 26° 295° (WNW) 11:52:17 145.935
TIGRISAT 02 May 11:51:37 11:55:03 20° 268° (W) 11:58:27 435.000
UWE-3 02 May 11:56:19 11:58:52 16° 300° (WNW) 12:01:22 435.000/436.395/437.385
ESTCUBE 1 02 May 11:56:25 12:00:18 28° 95° (E) 12:04:12 437.505/2401.250
HUMSAT D 02 May 11:58:14 12:02:17 61° 287° (WNW) 12:06:17 437.325/437.525
CUBEBUG 2 02 May 12:04:14 12:05:09 11° 305° (NW) 12:06:03 437.445
AIST 1 02 May 12:14:44 12:19:09 71° 263° (W) 12:23:32
QB50P2 02 May 12:15:54 12:19:55 39° 262° (W) 12:23:58 145.880/145.840
DUCHIFAT 1 02 May 12:16:05 12:20:09 44° 261° (W) 12:24:16 145.980
CUBEBUG 1 02 May 12:17:54 12:21:54 32° 96° (E) 12:25:52 437.445
POLYITAN 1 02 May 12:18:03 12:22:05 38° 262° (W) 12:26:07 437.675
ANTELSAT 02 May 12:18:32 12:19:57 11° 273° (W) 12:21:22 437.575/2403.000
POPSAT HIP 1 02 May 12:20:49 12:24:48 37° 263° (W) 12:28:49 437.405
QB50P1 02 May 12:24:13 12:28:07 34° 264° (W) 12:32:02 145.935-145.965
AO-7 02 May 12:28:45 12:29:40 10° 27° (NNE) 12:30:35 29.400- 29.500
ZACube-1 02 May 12:29:14 12:30:23 11° 303° (WNW) 12:31:33 437.345
50 SAT 02 May 12:29:15 12:32:49 46° 100° (E) 12:36:21 437.505
Gurwin Techsat 1B 02 May 12:35:20 12:38:01 14° 54° (NE) 12:40:42 435.225
DELFI C3 02 May 12:37:34 12:39:20 13° 300° (WNW) 12:41:06 145.870
Oscar 19 02 May 12:42:01 12:46:33 32° 64° (ENE) 12:51:07 437.125/150
DX 1 02 May 12:42:17 12:46:35 49° 100° (E) 12:50:50 434.975-435.025
VELOX 1 02 May 12:43:46 12:48:12 58° 101° (E) 12:52:36 145.980
UKube-1 02 May 12:49:36 12:53:50 48° 100° (E) 12:58:02 .
SO-50 02 May 12:53:26 12:54:52 11° 7° (N) 12:56:18 436.795
GONETS M04 02 May 12:56:27 13:05:02 62° 268° (W) 13:13:33
BUGSAT 1 02 May 13:00:13 13:03:59 31° 264° (W) 13:07:48 437.445
NANOSAT C BR1 02 May 13:00:49 13:03:31 16° 270° (W) 13:06:14 145.865
AO-85 02 May 13:06:03 13:11:07 40° 118° (ESE) 13:16:09 145.980
ISS 02 May 13:07:03 13:10:20 79° 21° (NNE) 13:13:37 145.825
AISAT 02 May 13:15:51 13:20:18 66° 288° (WNW) 13:24:44 437.250
Cosmos 2499 02 May 13:17:08 13:24:44 74° 265° (W) 13:32:57 435.465 / 435.565
JAS-2 02 May 13:19:49 13:25:52 90° 121° (ESE) 13:32:51 435.910
PHONESAT 2.4 02 May 13:19:58 13:22:28 21° 183° (S) 13:24:57 2401.200-2431.200
SPROUT 02 May 13:20:17 13:24:32 55° 101° (E) 13:28:44 437.525
ESTCUBE 1 02 May 13:33:02 13:37:11 36° 293° (WNW) 13:41:20 437.505/2401.250
CUBEBUG 1 02 May 13:54:15 13:58:09 30° 294° (WNW) 14:02:01 437.445
TISAT 1 02 May 13:55:54 13:59:56 40° 98° (E) 14:03:55 437.305
ITAMSAT 1 02 May 13:59:48 14:04:15 30° 63° (ENE) 14:08:42 435.822/435.867
50 SAT 02 May 14:04:03 14:06:16 16° 297° (WNW) 14:08:30 437.505
Gurwin Techsat 1B 02 May 14:11:48 14:17:07 77° 73° (ENE) 14:22:27 435.225
AO-7 02 May 14:12:51 14:19:51 32° 51° (NE) 14:26:51 29.400- 29.500
DX 1 02 May 14:19:11 14:22:27 21° 298° (WNW) 14:25:43 434.975-435.025
Oscar 19 02 May 14:20:54 14:25:45 40° 262° (W) 14:30:40 437.125/150
BEESAT 02 May 14:21:07 14:24:07 16° 90° (E) 14:27:05 436.000
VELOX 1 02 May 14:21:09 14:24:16 19° 299° (WNW) 14:27:23 145.980
UKube-1 02 May 14:26:20 14:29:35 21° 298° (WNW) 14:32:49 .
O/OREOS (USA 219) 02 May 14:32:49 14:35:59 19° 101° (E) 14:39:09 437.305
SO-50 02 May 14:33:20 14:37:09 23° 32° (NNE) 14:40:52 436.795
ISS 02 May 14:43:57 14:46:31 21° 220° (SW) 14:49:05 145.825
AO-85 02 May 14:46:26 14:51:40 44° 317° (NW) 14:56:46 145.980
GONETS M04 02 May 14:56:26 14:59:54 13° 291° (WNW) 15:03:22
SPROUT 02 May 14:57:10 15:00:06 18° 299° (WNW) 15:03:01 437.525
PHONESAT 2.4 02 May 14:57:12 14:58:41 13° 200° (SSW) 15:00:10 2401.200-2431.200
JAS-2 02 May 15:08:13 15:12:06 17° 277° (W) 15:16:17 435.910
Cosmos 2499 02 May 15:12:29 15:16:37 16° 284° (WNW) 15:20:54 435.465 / 435.565
ITUPSAT 1 02 May 15:14:47 15:19:25 49° 100° (E) 15:24:02 437.325
SWISSCUBE 02 May 15:24:19 15:29:05 68° 103° (ESE) 15:33:50 437.505
HORYU 2 02 May 15:24:24 15:26:40 14° 57° (ENE) 15:28:57 437.375
TISAT 1 02 May 15:32:03 15:35:23 23° 296° (WNW) 15:38:40 437.305
